Location: Cicognara
(44.9500°N, 10.4667°E)
Time: 15:32:16
(UTC+00:00)

Cosmos 1302 Rocket - Pass Details

Date: 20 June 2021
Orbit: 757 x 775 km, 74.0° (Epoch: 02 August)

Event Time Altitude Azimuth Distance (km) Brightness Sun altitude
Exits shadow 20:51:07 - 197° (SSW) 2,734 6.5 -13.7°
Reaches altitude 10° 20:52:13 10° 196° (SSW) 2,307 6.1 -13.8°
Maximum altitude 20:57:28 83° 110° (ESE) 779 3.9 -14.3°
Drops below altitude 10° 21:02:43 10° 23° (NNE) 2,311 7.0 -14.8°
Sets 21:05:06 0° 22° (NNE) 3,238 7.8 -15.0°
